KG6SIB Weather Reports


time (UTC)temp
F
wind
direction
speed
knots
gust
knots
rain 1hr
in
rain 24hr
in
rain mn
in
humidity
%
barometer
mb
20260505212147 52 240 7.0 12.2 0.00 0.45 0.45 88 1014.8
20260505211147 50 232 2.6 11.3 0.00 0.45 0.45 88 1014.5
20260505210646 50 213 6.1 13.0 0.00 0.45 0.45 91 1014.6
20260505210146 49 215 7.0 13.0 0.00 0.45 0.45 91 1014.6
20260505205646 49 214 7.0 12.2 0.00 0.45 0.45 92 1014.4
20260505205146 49 243 7.0 10.4 0.00 0.45 0.45 94 1014.3
20260505204646 49 238 4.3 10.4 0.00 0.45 0.45 94 1014.4
20260505204146 49 181 2.6 10.4 0.00 0.45 0.45 94 1014.4
20260505203646 48 226 6.1 14.8 0.00 0.45 0.45 94 1014.5
20260505203147 49 194 7.8 14.8 0.00 0.45 0.45 95 1014.4
20260505202646 49 226 2.6 14.8 0.00 0.45 0.45 95 1014.4
20260505202146 49 236 3.5 9.6 0.00 0.45 0.45 95 1014.3
20260505201646 48 234 6.1 9.6 0.00 0.45 0.45 95 1014.4
20260505201146 48 232 2.6 9.6 0.00 0.45 0.45 95 1014.5
20260505200646 47 236 4.3 9.6 0.00 0.45 0.45 95 1014.2
20260505200146 47 183 2.6 9.6 0.00 0.45 0.45 95 1014.2
20260505195646 46 229 5.2 10.4 0.00 0.45 0.45 95 1014.4
20260505195146 47 244 9.6 10.4 0.00 0.45 0.45 95 1014.5
20260505194646 47 222 1.7 3.5 0.00 0.45 0.45 95 1014.5
20260505194146 47 210 0.9 6.1 0.00 0.45 0.45 95 1014.5
20260505193646 46 231 0.9 6.1 0.01 0.45 0.45 95 1014.3
20260505192646 46 252 1.7 7.0 0.03 0.45 0.45 95 1014.6
20260505192146 46 236 2.6 7.8 0.07 0.45 0.45 95 1014.5
20260505191651 46 243 2.6 7.8 0.08 0.45 0.45 95 1014.5
20260505191145 46 242 2.6 7.8 0.08 0.45 0.45 95 1014.4
20260505185645 46 238 2.6 7.0 0.08 0.45 0.45 95 1014.5
20260505184645 45 242 3.5 10.4 0.09 0.45 0.45 95 1014.5
20260505184146 45 243 0.9 10.4 0.10 0.45 0.45 95 1014.5
20260505182645 45 205 1.7 6.1 0.07 0.42 0.42 95 1014.4
20260505182145 46 234 2.6 4.3 0.03 0.38 0.38 95 1014.3
20260505181645 45 178 0.9 5.2 0.02 0.37 0.37 95 1014.1
20260505181145 46 170 4.3 7.8 0.02 0.37 0.37 95 1014.2
20260505175645 46 223 5.2 10.4 0.03 0.37 0.37 95 1014.1
20260505173644 46 240 7.0 9.6 0.03 0.35 0.35 95 1013.8
20260505173144 46 234 4.3 9.6 0.03 0.35 0.35 95 1013.9
20260505172644 46 243 1.7 10.4 0.03 0.35 0.35 95 1013.9
20260505171644 46 230 10.4 11.3 0.04 0.35 0.35 95 1013.7
20260505171144 46 246 7.8 11.3 0.05 0.35 0.35 95 1013.7
20260505170644 46 217 6.1 11.3 0.06 0.35 0.35 95 1013.6
20260505170144 46 238 1.7 7.8 0.08 0.34 0.34 95 1013.6
20260505165644 46 228 5.2 7.8 0.09 0.34 0.34 95 1013.4
20260505165144 46 242 2.6 7.8 0.10 0.34 0.34 95 1013.4
20260505164644 46 241 5.2 9.6 0.09 0.33 0.33 95 1013.3
20260505164144 45 242 4.3 9.6 0.10 0.33 0.33 95 1013.3
20260505163644 45 249 7.0 8.7 0.09 0.32 0.32 95 1013.1
20260505163144 45 238 3.5 10.4 0.09 0.32 0.32 95 1013.2
20260505162643 45 240 7.0 10.4 0.09 0.32 0.32 94 1013.2
20260505162144 45 240 7.8 13.0 0.08 0.31 0.31 95 1013.1
20260505161643 45 225 3.5 13.0 0.08 0.31 0.31 95 1013.0
20260505161144 45 249 4.3 13.9 0.07 0.30 0.30 94 1012.9
20260505160644 46 233 0.0 13.9 0.06 0.29 0.29 94 1012.9
20260505160144 46 219 4.3 11.3 0.03 0.26 0.26 95 1012.7
20260505153144 46 252 2.6 8.7 0.00 0.23 0.23 95 1012.8
20260505152643 46 233 1.7 6.1 0.00 0.23 0.23 95 1012.8
20260505151643 46 229 1.7 6.1 0.00 0.23 0.23 95 1012.8
20260505151143 45 227 1.7 7.8 0.00 0.23 0.23 94 1012.7
20260505150643 45 250 0.9 7.8 0.01 0.23 0.23 94 1012.6
20260505150142 45 234 1.7 8.7 0.02 0.23 0.23 95 1012.6
20260505140642 45 213 6.1 9.6 0.04 0.22 0.22 94 1012.3
20260505140142 45 239 5.2 10.4 0.03 0.21 0.21 94 1012.3
20260505124641 46 227 8.7 13.0 0.07 0.18 0.18 94 1012.2
20260505124142 46 202 8.7 12.2 0.07 0.18 0.18 94 1012.3
20260505123641 46 243 5.2 12.2 0.05 0.16 0.16 94 1012.1
20260505122641 46 227 0.9 10.4 0.05 0.16 0.16 94 1012.2
20260505122141 46 242 2.6 12.2 0.05 0.16 0.16 94 1012.2
20260505121641 46 245 7.0 13.0 0.05 0.16 0.16 94 1012.1
20260505121141 46 228 7.0 13.0 0.05 0.16 0.16 94 1012.1
20260505120641 46 242 7.0 11.3 0.05 0.15 0.15 94 1012.1
20260505120141 46 231 2.6 11.3 0.04 0.14 0.14 94 1012.0
20260505115640 46 263 5.2 11.3 0.02 0.12 0.12 94 1012.1
20260505115141 46 219 8.7 11.3 0.01 0.11 0.11 94 1012.1
20260505114641 46 253 1.7 9.6 0.01 0.11 0.11 94 1012.1
20260505114140 46 223 6.1 10.4 0.01 0.11 0.11 94 1012.2
20260505113640 46 242 4.3 10.4 0.01 0.11 0.11 93 1012.2
20260505113141 46 248 6.1 10.4 0.01 0.11 0.11 94 1012.2
20260505112141 46 227 0.9 7.8 0.03 0.11 0.11 93 1012.3
20260505111640 46 239 7.0 7.8 0.03 0.11 0.11 93 1012.4
20260505111140 46 236 4.3 9.6 0.03 0.11 0.11 93 1012.5
20260505110140 46 221 4.3 13.0 0.02 0.10 0.10 93 1012.4
20260505102139 45 248 7.8 9.6 0.04 0.08 0.08 93 1012.4
20260505101639 45 245 4.3 12.2 0.05 0.08 0.08 92 1012.5
20260505101139 45 229 5.2 12.2 0.06 0.08 0.08 92 1012.5
20260505100639 45 237 7.8 10.4 0.06 0.08 0.08 92 1012.5
20260505100139 45 248 3.5 7.8 0.07 0.08 0.08 92 1012.6
20260505095639 45 238 2.6 7.8 0.06 0.07 0.07 92 1012.6
20260505095139 45 233 5.2 6.1 0.07 0.07 0.07 92 1012.7
20260505094639 45 227 1.7 5.2 0.06 0.06 0.06 92 1012.8
20260505094139 45 250 3.5 8.7 0.06 0.06 0.06 91 1012.8
20260505093639 45 251 3.5 8.7 0.06 0.06 0.06 91 1012.9
20260505093139 45 244 2.6 7.0 0.05 0.05 0.05 91 1012.9
20260505092639 45 231 0.0 0.0 0.04 0.04 0.04 91 1012.9
20260505092139 45 231 0.0 0.0 0.04 0.04 0.04 90 1013.0
20260505091639 45 231 0.0 0.0 0.03 0.03 0.03 90 1013.0
20260505091139 45 231 0.0 1.7 0.02 0.02 0.02 90 1013.0
20260505090639 45 231 0.0 1.7 0.02 0.02 0.02 90 1013.0
20260505090139 45 231 0.0 0.9 0.01 0.01 0.01 89 1013.1
20260505085639 45 231 0.0 2.6 0.01 0.01 0.01 89 1013.4
20260505085139 45 231 0.0 4.3 0.00 0.00 0.00 88 1013.3
20260505084638 45 231 0.9 6.1 0.00 0.00 0.00 88 1013.4
20260505084139 45 232 3.5 6.1 0.00 0.00 0.00 88 1013.5
20260505083639 46 269 6.1 6.1 0.00 0.00 0.00 88 1013.7
20260505083138 46 232 1.7 3.5 0.00 0.00 0.00 88 1013.7
20260505082638 46 233 2.6 4.3 0.00 0.00 0.00 88 1013.9
20260505082139 46 233 1.7 4.3 0.00 0.00 0.00 88 1014.0
20260505081139 46 237 0.9 4.3 0.00 0.00 0.00 88 1014.2
20260505080639 46 238 3.5 4.3 0.00 0.00 0.00 88 1014.2
20260505080138 46 244 3.5 4.3 0.00 0.00 0.00 88 1014.3
20260505075638 46 245 2.6 6.1 0.00 0.00 0.00 88 1014.1
20260505075138 46 245 2.6 6.1 0.00 0.00 0.00 88 1014.2
20260505074638 46 236 0.9 6.1 0.00 0.00 0.00 88 1014.1
20260505074138 46 235 2.6 6.1 0.00 0.00 0.00 88 1014.1
20260505072138 46 237 2.6 8.7 0.00 0.00 0.00 88 1014.3
20260505071638 46 244 6.1 8.7 0.00 0.00 0.00 88 1014.3
20260505071138 47 244 4.3 7.8 0.00 0.00 0.00 88 1014.6
20260505070138 47 246 0.9 5.2 0.00 0.00 0.00 88 1014.6
20260505065638 47 227 2.6 7.0 0.00 0.00 0.00 88 1014.2
20260505065137 47 236 1.7 8.7 0.00 0.00 0.00 88 1014.2
20260505064638 47 236 4.3 8.7 0.00 0.00 0.00 88 1014.3
20260505064137 47 242 1.7 7.0 0.00 0.00 0.00 88 1014.3
20260505063637 47 245 4.3 7.8 0.00 0.00 0.00 88 1014.4
20260505063138 47 234 2.6 7.8 0.00 0.00 0.00 88 1014.5
20260505062637 47 265 7.0 7.8 0.00 0.00 0.00 88 1014.5
20260505062137 47 229 3.5 7.0 0.00 0.00 0.00 88 1014.4
20260505061637 47 270 2.6 8.7 0.00 0.00 0.00 88 1014.3
20260505061137 47 235 0.0 8.7 0.00 0.00 0.00 88 1014.4
20260505060137 47 250 2.6 9.6 0.00 0.00 0.00 87 1014.6
20260505055637 47 242 1.7 7.8 0.00 0.00 0.00 87 1014.3
20260505055137 47 232 5.2 7.8 0.00 0.00 0.00 87 1014.3
20260505054636 47 244 1.7 9.6 0.00 0.00 0.00 87 1014.4
20260505054137 47 192 1.7 9.6 0.00 0.00 0.00 87 1014.4
20260505053637 47 246 1.7 7.8 0.00 0.00 0.00 87 1014.5
20260505053137 47 237 2.6 7.8 0.00 0.00 0.00 86 1014.5
20260505052636 47 235 5.2 9.6 0.00 0.00 0.00 86 1014.6
20260505052137 47 227 3.5 9.6 0.00 0.00 0.00 85 1014.7
20260505051637 47 242 4.3 9.6 0.00 0.00 0.00 85 1014.7
20260505051136 47 241 7.0 12.2 0.00 0.00 0.00 86 1014.7
20260505050636 47 228 1.7 12.2 0.00 0.00 0.00 85 1014.8
20260505050136 47 238 3.5 10.4 0.00 0.00 0.00 86 1014.8
20260505041636 47 198 4.3 8.7 0.00 0.00 0.00 87 1014.3
20260505041135 47 240 3.5 12.2 0.00 0.00 0.00 86 1014.3
20260505040636 47 219 5.2 12.2 0.00 0.00 0.00 86 1014.4
20260505040136 47 244 6.1 12.2 0.00 0.00 0.00 86 1014.4
20260505035636 47 240 8.7 10.4 0.00 0.00 0.00 86 1014.3
20260505034635 47 231 1.7 11.3 0.00 0.00 0.00 85 1014.2
20260505034135 48 252 9.6 11.3 0.00 0.00 0.00 85 1014.3
20260505033635 48 227 3.5 10.4 0.00 0.00 0.00 86 1014.3
20260505033136 48 234 5.2 12.2 0.00 0.00 0.00 86 1014.1
20260505032135 48 219 6.1 11.3 0.00 0.00 0.00 85 1014.1
20260505031635 48 240 5.2 10.4 0.00 0.00 0.00 83 1014.3
20260505031135 48 228 3.5 10.4 0.00 0.00 0.00 83 1014.0
20260505030635 49 204 2.6 10.4 0.00 0.00 0.00 83 1013.9
20260505030135 49 248 2.6 11.3 0.00 0.00 0.00 83 1013.9
20260505025635 49 205 5.2 12.2 0.00 0.00 0.00 82 1013.8
20260505024635 49 223 4.3 12.2 0.00 0.00 0.00 82 1013.6
20260505024135 49 236 2.6 11.3 0.00 0.00 0.00 81 1013.4
20260505023635 49 210 4.3 12.2 0.00 0.00 0.00 80 1013.5
20260505023135 49 239 8.7 12.2 0.00 0.00 0.00 80 1013.5
20260505022635 49 202 3.5 11.3 0.00 0.00 0.00 79 1013.6
20260505022134 50 251 8.7 13.0 0.00 0.00 0.00 78 1013.5
20260505021634 50 229 7.8 13.0 0.00 0.00 0.00 77 1013.6
20260505021135 50 227 4.3 13.9 0.00 0.00 0.00 76 1013.7
20260505020635 51 225 8.7 13.9 0.00 0.00 0.00 75 1013.8
20260505020134 51 229 3.5 13.9 0.00 0.00 0.00 75 1013.6
20260505015135 52 227 4.3 10.4 0.00 0.00 0.00 74 1013.3
20260505014634 52 243 5.2 13.9 0.00 0.00 0.00 73 1013.3
20260505014135 52 182 2.6 18.2 0.00 0.00 0.00 73 1013.4
20260505013634 52 209 10.4 18.2 0.00 0.00 0.00 73 1013.6
20260505013134 52 225 8.7 15.6 0.00 0.00 0.00 72 1013.5
20260505012634 53 242 7.8 14.8 0.00 0.00 0.00 71 1013.8
20260505012134 53 199 7.8 17.4 0.00 0.00 0.00 69 1013.9
20260505011634 54 188 5.2 17.4 0.00 0.00 0.00 68 1013.8
20260505011134 54 248 6.1 16.5 0.00 0.00 0.00 68 1013.7
20260505010634 54 242 11.3 16.5 0.00 0.00 0.00 67 1013.7
20260505010133 54 198 7.8 13.9 0.00 0.00 0.00 66 1013.9
20260505005634 55 215 4.3 14.8 0.00 0.00 0.00 66 1014.2
20260505005133 55 229 7.8 14.8 0.00 0.00 0.00 66 1014.1
20260505004633 55 220 7.0 12.2 0.00 0.00 0.00 66 1014.1
20260505004134 56 217 4.3 13.0 0.00 0.00 0.00 64 1014.0
20260505003634 56 194 4.3 13.0 0.00 0.00 0.00 64 1014.1
20260505003134 57 257 10.4 13.9 0.00 0.00 0.00 63 1014.3
20260505002634 57 259 10.4 13.9 0.00 0.00 0.00 62 1014.3
20260505002134 57 236 6.1 13.9 0.00 0.00 0.00 63 1014.4
20260505001633 57 220 2.6 13.0 0.00 0.00 0.00 62 1014.3
20260505000633 55 219 5.2 13.9 0.00 0.00 0.00 64 1014.1
20260505000133 56 215 1.7 13.0 0.00 0.00 0.00 64 1014.3
20260504235633 56 215 8.7 13.0 0.00 0.00 0.00 64 1014.5
20260504235133 55 204 5.2 13.0 0.00 0.00 0.00 64 1014.4
20260504233133 55 201 4.3 13.0 0.00 0.00 0.00 63 1014.2
20260504232633 55 240 4.3 13.0 0.00 0.00 0.00 62 1014.1
20260504232132 55 211 9.6 13.0 0.00 0.00 0.00 63 1014.2
20260504231632 55 265 3.5 8.7 0.00 0.00 0.00 63 1014.1
20260504231132 55 214 1.7 8.7 0.00 0.00 0.00 62 1014.1
20260504230632 56 228 1.7 12.2 0.00 0.00 0.00 63 1014.6
20260504230133 56 254 8.7 13.9 0.00 0.00 0.00 62 1014.5
20260504225632 56 224 2.6 13.9 0.00 0.00 0.00 61 1014.4
20260504225133 56 249 8.7 13.0 0.00 0.00 0.00 61 1014.4
20260504224632 56 233 5.2 13.0 0.00 0.00 0.00 62 1014.5
20260504224132 56 251 6.1 13.9 0.00 0.00 0.00 62 1014.5
20260504223132 57 234 2.6 13.0 0.00 0.00 0.00 60 1014.2
20260504222632 57 235 9.6 11.3 0.00 0.00 0.00 60 1014.5
20260504222132 57 217 7.0 11.3 0.00 0.00 0.00 61 1014.7
20260504221632 56 225 6.1 12.2 0.00 0.00 0.00 61 1014.8
20260504221132 56 227 5.2 12.2 0.00 0.00 0.00 60 1014.8
20260504220632 56 255 6.1 13.0 0.00 0.00 0.00 61 1014.8
20260504215632 57 180 2.6 14.8 0.00 0.00 0.00 60 1015.1
20260504215132 58 253 7.8 14.8 0.00 0.00 0.00 60 1015.0
20260504214632 58 247 10.4 15.6 0.00 0.00 0.00 60 1015.1
20260504214131 58 224 1.7 15.6 0.00 0.00 0.00 61 1015.1
20260504213631 58 217 2.6 14.8 0.00 0.00 0.00 61 1015.2
20260504213132 58 215 2.6 13.0 0.00 0.00 0.00 60 1015.3
20260504212631 58 202 3.5 13.0 0.00 0.00 0.00 60 1015.3